EW9663 Weather Reports


time (UTC)temp
C
wind
direction
speed
KPH
gust
KPH
rain 1hr
cm
rain 24hr
cm
rain mn
cm
humidity
%
barometer
mb
20180219041918 9 345 0.0 0.0 0.00 0.00 0.00 83 1022.2
20180219040418 9 345 0.0 0.0 0.00 0.00 0.00 83 1022.1
20180219034916 9 345 0.0 0.0 0.00 0.00 0.00 82 1022.0
20180219033415 9 345 0.0 0.0 0.00 0.00 0.00 82 1022.1
20180219031916 9 345 0.0 0.0 0.00 0.00 0.00 83 1022.1
20180219030416 9 345 0.0 0.0 0.00 0.00 0.00 82 1022.2
20180219024912 9 345 0.0 0.0 0.00 0.00 0.00 82 1022.2
20180219023416 9 345 0.0 0.0 0.00 0.00 0.00 82 1022.4
20180219021914 9 345 0.0 0.0 0.00 0.00 0.00 82 1022.5
20180219020413 9 345 0.0 0.0 0.00 0.00 0.00 81 1022.7
20180219014909 9 345 0.0 0.0 0.00 0.00 0.00 81 1022.6
20180219013407 9 345 0.0 0.0 0.00 0.00 0.00 82 1022.9
20180219011904 9 345 0.0 0.0 0.00 0.00 0.00 83 1023.0
20180219010402 9 345 0.0 0.0 0.00 0.00 0.00 82 1023.0
20180219004904 9 345 0.0 0.0 0.00 0.00 0.00 82 1023.1
20180219003358 10 345 0.0 0.0 0.00 0.00 0.00 81 1023.1
20180219001856 10 345 0.0 0.0 0.00 0.00 0.00 82 1023.3
20180219000354 10 345 0.0 0.0 0.00 0.00 0.00 82 1023.5
20180218234855 9 345 0.0 0.0 0.00 0.00 0.00 82 1023.4
20180218233355 9 345 0.0 0.0 0.00 0.00 0.00 79 1023.3
20180218231853 9 345 0.0 0.0 0.00 0.00 0.00 78 1023.3
20180218230354 10 345 0.0 0.0 0.00 0.00 0.00 78 1023.4
20180218224852 10 345 0.0 0.0 0.00 0.00 0.00 78 1023.4
20180218223351 10 345 0.0 0.0 0.00 0.00 0.00 78 1023.5
20180218221851 10 345 0.0 0.0 0.00 0.00 0.00 79 1023.5
20180218220350 10 345 0.0 0.0 0.00 0.00 0.00 79 1023.6
20180218214850 10 345 0.0 0.0 0.00 0.00 0.00 77 1023.5
20180218213351 10 345 0.0 0.0 0.00 0.00 0.00 75 1023.5
20180218211852 11 345 0.0 0.0 0.00 0.00 0.00 75 1023.4
20180218210349 11 345 0.0 0.0 0.00 0.00 0.00 73 1023.3
20180218204847 11 345 0.0 0.0 0.00 0.00 0.00 71 1023.3
20180218203347 11 345 0.0 0.0 0.00 0.00 0.00 71 1023.3
20180218201847 12 345 0.0 0.0 0.00 0.00 0.00 70 1023.2
20180218200347 12 343 0.0 0.0 0.00 0.00 0.00 69 1023.2
20180218194847 12 355 0.0 0.0 0.00 0.00 0.00 68 1023.2
20180218193348 12 333 0.0 0.0 0.00 0.00 0.00 68 1023.1
20180218191846 12 15 0.0 0.0 0.00 0.00 0.00 68 1023.0
20180218190345 12 13 0.0 0.0 0.00 0.00 0.00 68 1023.0
20180218184845 12 13 0.0 0.0 0.00 0.00 0.00 67 1022.9
20180218183343 12 22 0.0 0.0 0.00 0.00 0.00 68 1022.9
20180218181847 12 18 0.0 0.0 0.00 0.00 0.00 68 1022.8
20180218180343 12 24 0.0 0.0 0.00 0.00 0.00 71 1022.6
20180218174843 12 355 0.0 0.0 0.00 0.00 0.00 71 1022.5
20180218173345 12 342 0.0 0.0 0.00 0.00 0.00 70 1022.3
20180218171943 13 321 0.0 0.0 0.00 0.00 0.00 68 1022.1
20180218170341 13 336 0.0 0.0 0.00 0.00 0.00 68 1022.2
20180218164839 13 338 0.0 0.0 0.00 0.00 0.00 69 1022.2
20180218163339 13 304 0.0 0.0 0.00 0.00 0.00 69 1022.2
20180218161837 13 309 0.0 0.0 0.00 0.00 0.00 68 1022.2
20180218160336 13 10 0.0 0.0 0.00 0.00 0.00 69 1022.4
20180218154834 13 316 0.0 0.0 0.00 0.00 0.00 65 1022.5
20180218153333 14 334 0.0 0.0 0.00 0.00 0.00 60 1022.6
20180218151835 15 5 0.0 0.0 0.00 0.00 0.00 57 1022.5
20180218150334 15 332 0.0 0.0 0.00 0.00 0.00 41 1022.7
20180218144830 16 329 0.0 0.0 0.00 0.00 0.00 43 1022.8
20180218143330 15 331 0.0 0.0 0.00 0.00 0.00 43 1022.9
20180218141826 16 315 0.0 0.0 0.00 0.00 0.00 43 1023.2
20180218140326 16 327 0.0 0.0 0.00 0.00 0.00 40 1023.5
20180218134825 16 324 0.0 0.0 0.00 0.03 0.00 41 1023.6
20180218133319 16 53 0.0 0.0 0.00 0.03 0.00 38 1023.8
20180218131820 16 41 0.0 0.0 0.00 0.03 0.00 37 1024.1
20180218130315 16 77 0.0 0.0 0.00 0.03 0.00 35 1024.3
20180218124812 16 104 0.0 0.0 0.00 0.03 0.00 37 1024.5
20180218123307 15 92 0.0 0.0 0.00 0.03 0.00 38 1024.9
20180218121805 15 75 0.0 0.0 0.00 0.03 0.00 38 1025.1
20180218120301 15 76 0.0 0.0 0.00 0.03 0.00 38 1025.5
20180218114759 14 68 0.0 0.0 0.00 0.03 0.00 39 1025.6
20180218113254 14 72 0.0 0.0 0.00 0.03 0.00 38 1025.8
20180218111754 13 72 0.0 0.0 0.00 0.03 0.00 38 1026.1
20180218110248 13 87 0.0 0.0 0.00 0.03 0.00 39 1026.3
20180218104743 13 56 0.0 0.0 0.00 0.03 0.00 41 1026.3
20180218103243 12 52 0.0 0.0 0.00 0.03 0.00 41 1026.4
20180218101736 12 71 0.0 0.0 0.00 0.03 0.00 41 1026.3
20180218100237 12 82 0.0 0.0 0.00 0.03 0.00 42 1026.7
20180218094728 12 67 0.0 0.0 0.00 0.03 0.00 42 1026.9
20180218093224 12 72 0.0 0.0 0.00 0.03 0.00 46 1027.1
20180218091721 11 63 0.0 0.0 0.00 0.03 0.00 47 1027.1
20180218090215 11 88 0.0 0.0 0.00 0.03 0.00 49 1027.1
20180218084715 11 76 0.0 0.0 0.00 0.03 0.00 51 1027.3
20180218083207 10 74 0.0 0.0 0.00 0.03 0.00 54 1027.4
20180218081703 10 85 0.0 0.0 0.00 0.03 0.00 55 1027.1
20180218080159 10 65 0.0 0.0 0.00 0.03 0.00 54 1026.9
20180218074659 9 46 0.0 0.0 0.00 0.03 0.00 56 1027.0
20180218073153 9 54 0.0 0.0 0.00 0.03 0.00 58 1026.8
20180218071651 9 82 0.0 0.0 0.00 0.03 0.00 60 1026.6
20180218070153 9 86 0.0 0.0 0.00 0.03 0.00 60 1026.3
20180218064652 9 85 0.0 0.0 0.00 0.03 0.00 60 1026.1
20180218063154 9 91 0.0 0.0 0.00 0.03 0.00 60 1026.2
20180218061648 9 93 0.0 0.0 0.00 0.03 0.00 60 1026.2
20180218060148 9 102 0.0 0.0 0.00 0.03 0.00 60 1026.1
20180218054647 9 93 0.0 0.0 0.00 0.03 0.00 60 1026.1
20180218053145 9 74 0.0 0.0 0.00 0.03 0.00 61 1026.1
20180218051645 9 92 0.0 0.0 0.00 0.03 0.00 61 1026.1
20180218050142 9 76 0.0 0.0 0.00 0.03 0.00 62 1026.1
20180218044646 10 79 0.0 0.0 0.00 0.03 0.00 62 1026.1
20180218043143 10 88 0.0 0.0 0.00 0.03 0.00 63 1026.0